SCP
-0 -0 0 0 0 -0 0 0 0 0 0 0 0 0 0 0 0 0 0 0 0 0 0 0 0 0 0 0 0 0 0 0 0 0 0 0 0 0 0 0 0 0 0 0 0 0 -0 -0 -0
-0 -0 0 0 0 0 -0 0 0 0 0 0 0 0 0 0 0 0 0 0 0 0 0 0 0 0 0 0 0 -0 0 0 0 0 0 0 0 0 0 0 0 0 0 0 0 0 0 -0 -0
-0 0 0 0 0 0 0 0 0 0 0 0 0 0 0 0 0 0 0 0 0 0 0 0 0 0 0 0 0 0 0 0 0 0 0 0 0 0 0 0 0 0 0 0 0 0 0 0 -0
-0 0 0 0 0 0 0 0 0 0 0 0 0 0 0 0 0 0 0 0 0 0 0 0 0 0 0 0 0 0 0 0 0 0 0 0 0 0 0 0 0 0 0 0 0 0 0 0 0
0 -0 0 0 0 0 0 0 0 0 0 0 0 0 0 0 0 0 0 0 0 0 0 0 0 0 0 0 0 0 0 0 0 0 0 0 0 0 0 0 0 0 0 0 0 0 0 0 0
0 0 0 0 0 0 0 0 0 0 0 0 0 0 0 0 0 0 0 0 0 0 0 0 0 0 0 0 0 0 0 0 0 0 0 0 0 0 0 0 0 0 0 0 0 0 0 0 0
0 0 0 0 0 0 0 0 0 0 0 0 0 0 0 0 0 0 0 0 0 0 0 0 0 0 0 0 0 0 0 0 0 0 0 0 0 0 0 0 0 0 0 0 0 0 0 0 0
0 0 0 0 0 0 0 0 0 0 0 0 0 0 0 0 0 0 0 0 0 0 0 0 0 0 0 0 0 0 0 0 0 0 0 0 0 0 0 0 0 0 0 0 0 0 0 0 0
0 0 0 0 0 0 0 0 0 0 0 0 0 0 0 0 0 0 0 0 0 0 0 0 0 0 0 0 0 0 0 0 0 0 0 0 0 0 0 0 0 0 0 0 0 0 0 0 0
0 0 0 0 0 0 0 0 0 0 0 0 0 0 0 0 0 0 0 0 0 0 0 0 0 0 0 0 0 0 0 0 0 0 0 0 0 0 0 0 0 0 0 0 0 0 0 0 0
0 0 0 0 0 0 0 0 0 0 0 0 0 0 0 0 0 0 0 0 0 0 0 0 0 0 0 0 0 0 0 0 -0 0 0 0 0 0 0 -0 0 0 0 0 0 0 0 0 0
0 0 0 0 0 0 0 0 0 0 0 0 0 0 0 0 0 0 0 0 0 0 0 0 0 0 0 0 0 -0 -0 -0 -0 0 0 0 0 0 0 0 -0 -0 -0 0 0 0 0 0 0
0 0 0 0 0 0 0 0 0 0 0 0 0 0 0 0 0 0 0 0 0 0 0 0 0 0 0 0 0 -0 -0 -0 -0 -0 0 0 0 0 0 0 0 0 -0 0 0 0 0 0 0
0 0 0 0 0 0 0 0 0 0 0 0 0 0 0 0 0 0 0 0 0 0 0 0 0 0 0 0 -0 -0 -0 -0 -0 -0 -0 0 0 0 0 0 0 0 0 0 0 0 0 0 0
0 0 0 0 0 0 0 0 0 0 0 0 0 0 0 0 0 0 0 0 0 0 0 0 0 0 0 0 0 -0 -0 -0 -0 -0 -0 -0 0 0 0 0 0 0 0 0 0 0 0 0 0
0 0 0 0 0 0 0 0 0 0 0 0 0 0 0 0 0 0 0 0 0 0 0 0 0 0 0 0 0 0 0 -0 -0 -0 -0 -0 -0 0 0 0 0 0 0 0 0 0 0 0 0
0 0 0 0 0 0 0 0 0 0 0 0 0 0 0 0 0 0 0 0 0 0 0 0 0 0 0 0 0 0 -0 -0 -0 -0 -0 -0 -0 -0 0 0 0 0 0 0 0 0 0 -0 0
0 0 0 0 0 0 0 0 0 0 0 0 0 0 0 0 0 0 0 0 0 0 0 0 0 0 0 0 0 0 0 -0 -0 -0 -0 -0 -0 -0 0 0 0 0 0 0 0 0 0 0 -0
0 0 0 0 0 0 0 0 0 0 0 0 0 0 0 0 0 0 0 0 0 0 0 0 0 0 0 0 0 0 0 0 -0 0 -0 0 0 -0 -0 0 0 0 0 0 0 0 0 0 0
0 0 0 0 0 0 0 0 0 0 0 0 0 0 0 0 0 0 0 0 0 0 0 0 0 0 0 0 0 0 0 0 0 0 0 0 0 0 -0 0 0 0 0 0 0 0 0 0 0
0 0 0 0 0 0 0 0 0 0 0 0 0 0 0 0 0 0 0 0 0 0 0 0 0 0 0 0 0 0 0 0 0 0 0 0 0 0 0 0 0 0 0 0 0 0 0 0 0
0 0 0 0 0 0 0 0 0 0 0 0 0 0 0 0 0 0 0 0 0 0 0 0 0 0 0 0 0 0 0 0 0 0 0 0 0 0 0 0 0 0 0 0 0 0 0 0 0
0 0 0 0 0 0 0 0 0 0 0 0 0 0 0 0 0 0 0 0 0 0 0 0 0 0 0 0 0 0 0 0 0 0 0 0 0 0 0 0 0 0 0 0 0 0 0 0 0
0 0 0 0 0 0 0 0 0 0 0 0 0 0 0 0 0 0 0 0 0 0 0 0 0 0 0 0 0 0 0 0 0 0 0 0 0 0 0 0 0 0 0 0 0 0 0 0 0
0 0 0 0 0 0 0 0 0 0 0 0 0 0 0 0 0 0 0 0 0 0 0 0 0 0 0 0 0 0 0 0 0 0 0 0 0 0 0 0 0 0 0 0 0 0 0 0 0
0 0 0 0 0 0 0 0 0 0 0 0 0 0 0 0 0 0 0 0 0 0 0 0 0 0 0 0 0 0 0 0 0 0 0 0 0 0 0 0 0 0 0 0 0 0 0 0 0
0 0 0 0 0 0 0 0 0 0 0 0 0 0 0 0 0 0 0 0 0 0 0 0 0 0 0 0 0 0 0 0 0 0 0 0 0 0 0 0 0 0 0 0 0 0 0 0 0
0 0 0 0 0 0 0 0 0 0 0 0 0 0 0 0 0 0 0 0 0 0 0 0 0 0 0 0 0 0 0 0 0 0 0 0 0 0 0 0 0 0 0 0 0 0 0 0 0
0 0 0 0 0 0 0 0 0 0 0 -0 0 0 0 0 0 0 0 0 0 0 0 0 0 0 0 0 0 0 0 0 0 0 0 0 0 0 0 0 0 0 0 0 0 0 0 0 0
0 0 0 0 0 0 0 0 0 0 0 0 0 0 0 0 0 0 0 0 0 0 0 0 0 0 0 0 0 0 0 0 0 0 0 0 0 0 0 0 0 0 0 0 0 0 0 0 -0
Wind_Speed_500mb
4 6 7 1 8 3 10 9 5 15 7 12 14 14 10 7 10 9 2 14 21 25 29 33 43 51 56 48 51 45 48 47 25 15 18 15 15 17 22 25 26 29 32 30 29 28 27 32 31
6 8 5 5 9 5 12 7 13 12 9 5 6 9 5 7 4 1 0 15 20 24 31 37 44 46 53 62 51 51 43 46 43 27 22 24 23 18 24 23 29 32 35 34 32 30 32 33 33
8 8 5 4 8 12 8 8 8 6 6 11 7 4 7 3 0 1 6 13 18 23 29 40 45 47 48 53 64 50 48 45 43 41 30 30 28 26 23 28 37 36 39 36 35 34 34 36 36
5 2 3 13 18 11 11 9 6 3 3 2 8 16 2 4 1 3 9 13 16 21 31 44 50 51 50 49 53 58 46 45 42 41 41 34 40 31 33 37 41 39 40 37 38 39 38 38 39
3 7 6 9 12 10 11 7 2 4 5 12 13 7 12 4 12 5 7 12 15 20 32 40 47 50 50 48 46 51 50 41 39 42 39 39 36 43 35 37 43 38 40 37 40 43 44 42 41
5 7 1 7 10 10 7 2 4 7 11 14 11 18 6 5 6 8 11 9 13 17 26 34 39 39 43 43 40 41 45 42 39 39 40 37 40 41 43 35 46 40 43 38 41 48 47 46 45
4 7 7 9 10 8 5 5 8 12 15 9 10 10 3 6 10 15 14 11 12 17 23 29 34 35 34 36 40 36 39 40 36 38 40 37 37 42 39 43 34 47 51 47 44 50 51 50 47
5 5 8 6 4 6 4 8 6 10 10 9 5 4 7 5 14 21 15 15 17 17 15 19 24 28 32 34 39 39 40 38 36 31 37 35 39 37 44 37 39 37 54 49 47 51 56 54 52
9 4 8 5 2 6 2 7 1 8 18 17 16 17 14 15 22 19 17 17 14 14 16 19 20 25 32 37 39 42 45 49 46 39 30 35 33 33 32 47 38 33 56 59 55 56 67 61 59
15 6 6 6 5 1 4 9 13 10 17 23 21 21 19 18 19 21 22 20 21 17 15 17 19 22 30 37 42 44 46 52 53 56 44 33 31 28 30 39 41 38 45 65 61 60 61 64 63
13 6 12 6 4 2 7 14 8 13 15 10 17 15 16 23 25 28 28 26 24 22 20 23 24 26 32 37 43 46 49 53 53 56 59 46 32 32 28 37 46 43 32 52 64 65 68 74 71
10 9 4 8 2 2 9 15 15 29 18 11 16 18 24 26 31 32 32 30 28 26 23 25 28 31 31 36 35 42 49 54 56 57 55 60 47 30 32 31 47 55 49 26 56 66 74 76 79
13 11 6 8 2 7 17 22 25 40 29 24 20 21 24 25 30 32 33 34 33 32 29 25 30 35 36 41 44 47 50 55 61 59 57 58 58 44 29 34 28 38 57 53 26 54 44 57 81
7 11 9 8 6 15 13 19 15 12 24 19 19 20 23 28 30 33 35 38 38 36 34 30 34 39 42 45 50 52 55 55 63 64 65 61 57 57 43 33 27 36 34 51 55 14 51 40 85
13 5 6 9 5 8 25 17 21 15 16 17 19 22 26 31 33 38 39 40 40 39 37 35 37 41 43 46 47 52 55 62 66 66 63 63 61 57 53 40 30 36 36 34 42 44 36 23 83
6 7 8 9 9 2 14 13 16 24 19 19 19 21 22 25 28 32 37 39 39 41 40 38 39 41 41 41 47 55 58 61 65 70 65 60 61 54 53 45 37 34 40 36 29 52 62 61 51
4 12 14 4 6 11 5 23 2 21 25 28 22 19 18 19 21 24 29 35 38 41 42 42 41 41 39 44 45 52 53 51 61 63 77 66 59 53 50 46 39 37 37 35 31 31 58 63 52
12 12 9 17 10 11 33 48 44 45 43 41 31 22 17 14 17 19 21 26 35 41 40 42 41 42 42 43 47 49 49 53 74 79 62 60 59 55 45 45 41 37 39 38 33 34 53 69 51
9 14 22 22 15 26 22 42 42 38 42 41 37 29 20 14 14 20 24 26 28 31 36 39 41 42 39 41 47 53 61 78 89 69 57 55 59 52 45 43 44 40 39 42 37 35 43 70 91
14 17 15 15 5 21 28 53 47 32 22 34 34 31 24 21 25 24 23 28 30 31 34 37 42 45 45 48 52 58 75 87 92 70 56 49 45 43 43 41 43 42 42 44 38 39 39 62 69
14 9 17 17 33 11 25 21 5 6 12 16 29 29 27 27 30 30 29 28 30 34 37 40 45 49 50 57 60 59 67 80 70 55 48 42 41 45 49 46 45 46 46 46 45 40 43 50 59
10 9 16 27 23 9 16 11 12 5 11 20 31 37 35 29 27 30 33 34 35 37 41 45 46 49 55 58 59 64 63 69 64 55 57 50 45 47 49 50 47 48 48 50 49 44 47 49 61
10 13 21 14 5 10 6 6 14 6 13 19 28 33 29 25 24 25 30 34 37 38 45 46 44 47 54 56 67 62 58 56 60 59 54 51 49 47 46 48 51 50 51 53 54 50 52 57 58
22 17 13 3 3 6 5 7 12 4 5 3 3 10 15 21 26 27 29 33 36 37 42 46 45 51 59 62 59 58 56 59 57 59 58 57 54 50 43 42 47 52 53 56 56 55 58 60 61
11 10 6 4 3 6 11 11 19 20 4 7 4 6 11 21 28 31 32 33 36 38 39 42 49 59 55 55 55 57 60 56 61 60 61 57 55 54 49 43 43 50 53 56 57 61 61 64 70
7 4 5 11 14 26 9 12 5 6 1 7 8 12 16 25 30 33 37 37 37 40 40 46 50 57 56 54 55 56 60 60 59 60 57 56 55 54 50 49 48 45 54 55 59 63 67 67 74
6 1 4 8 1 7 8 13 25 5 1 7 13 7 18 32 39 39 43 43 43 42 44 47 54 55 56 60 57 55 56 57 59 55 57 59 54 54 54 55 56 53 52 57 59 66 71 72 73
4 3 3 2 11 16 12 8 16 9 17 14 14 18 36 52 45 42 44 44 44 44 47 52 57 56 61 61 58 57 57 56 58 57 57 57 57 54 56 58 60 59 55 57 58 67 74 77 77
5 3 1 4 4 8 14 9 6 5 3 5 17 32 60 63 62 54 47 45 45 44 45 57 61 59 63 62 61 60 61 55 55 61 63 57 55 55 58 58 61 65 66 62 62 64 74 81 81
3 1 5 6 5 5 6 21 7 7 5 9 28 58 70 77 74 60 53 50 45 45 55 57 61 59 60 62 65 66 60 58 57 62 64 66 68 62 61 59 61 65 68 67 68 66 67 79 89
Wind_Direction_500mb
61 88 102 353 222 212 86 71 21 30 48 15 2 5 11 11 353 346 216 358 354 352 347 347 343 343 344 343 338 335 340 331 302 280 246 251 256 244 244 229 220 215 209 204 195 191 175 169 173
86 107 71 271 273 256 84 54 46 39 25 355 323 333 263 56 54 40 133 319 349 350 346 339 340 339 338 336 341 336 326 332 314 301 255 253 247 264 246 237 224 217 213 208 199 192 185 178 178
79 96 281 306 0 55 67 63 59 42 24 2 325 345 324 48 149 162 274 327 346 345 344 332 336 335 333 330 328 335 328 320 322 296 293 254 249 246 246 237 220 214 217 216 205 198 186 184 180
105 285 242 58 78 65 72 81 36 345 188 342 334 290 317 202 166 202 301 332 344 340 331 329 334 335 334 331 326 325 329 320 313 308 298 276 245 244 247 245 229 210 214 219 212 203 194 187 183
47 251 113 90 79 110 81 70 328 313 296 318 332 331 293 238 248 269 308 331 333 339 328 330 336 339 339 339 334 325 325 325 311 304 301 283 259 246 244 250 242 212 214 217 214 206 199 193 188
236 259 242 79 95 104 110 76 302 286 315 312 287 304 299 225 244 272 300 318 331 339 334 337 339 342 345 353 346 334 324 322 318 305 298 288 282 262 250 246 248 224 203 214 214 208 203 196 192
7 29 75 88 102 155 119 355 291 323 293 319 307 287 346 254 235 279 282 296 319 327 333 337 338 344 356 1 0 348 335 325 324 312 300 293 286 284 256 250 242 236 202 202 213 211 204 198 196
61 80 117 33 49 96 115 311 297 282 312 303 265 285 307 325 240 284 272 285 300 317 332 334 337 345 350 6 8 3 354 345 330 324 308 308 289 297 273 265 243 236 208 203 205 217 207 201 199
28 119 90 72 317 99 127 310 356 271 272 268 266 286 292 284 277 259 259 276 285 301 309 316 329 347 353 353 360 5 2 360 358 343 328 315 306 292 296 261 253 232 207 206 207 210 214 205 202
21 56 72 40 53 58 266 294 317 281 265 266 263 268 260 264 255 247 254 262 264 272 284 300 308 332 344 347 348 354 356 356 0 359 354 331 321 307 295 259 256 239 221 205 212 209 221 209 201
14 76 132 116 83 7 273 275 234 272 270 266 277 284 259 260 254 252 252 254 256 263 273 281 286 305 323 335 342 344 347 347 350 355 356 354 340 317 290 284 243 257 249 207 206 216 210 213 202
96 89 115 152 175 242 276 295 258 245 244 291 278 270 269 264 253 253 255 254 255 262 269 276 288 296 310 318 331 335 337 339 342 345 348 349 346 330 311 295 272 259 259 263 210 215 219 219 201
84 148 141 176 129 270 292 266 274 266 253 266 269 269 270 263 254 252 253 257 256 258 261 270 286 293 302 312 317 324 328 331 333 336 337 340 339 338 320 283 279 269 257 257 261 225 242 234 198
103 152 164 184 255 291 292 294 300 261 226 246 261 272 276 271 262 255 250 256 257 261 261 261 276 288 295 302 309 314 320 324 327 327 327 329 331 330 324 308 285 279 281 247 246 277 236 234 199
141 187 190 195 287 304 318 258 224 218 207 246 263 275 280 280 267 258 258 257 259 261 263 261 272 285 290 298 304 309 315 317 319 319 319 320 321 323 320 312 292 275 277 270 261 234 225 312 212
259 235 302 130 328 46 349 291 188 196 218 249 276 284 283 286 279 270 265 261 257 260 258 260 267 273 288 294 300 306 309 313 316 316 314 313 311 313 312 308 299 278 276 281 260 240 248 266 221
195 313 310 294 77 323 250 286 286 209 235 256 271 280 285 295 296 286 272 264 261 261 260 258 264 273 281 290 298 303 311 310 315 312 310 307 303 305 302 298 294 286 270 272 271 237 249 252 277
326 320 303 289 40 326 284 269 266 254 245 260 262 258 266 291 310 300 287 273 264 263 259 260 263 270 279 290 297 298 299 303 308 305 301 300 300 301 294 290 287 281 272 260 257 242 224 223 234
338 304 290 287 39 327 301 290 278 270 257 245 244 239 247 267 295 309 307 299 289 271 264 259 262 270 274 284 292 295 298 303 311 301 293 290 291 291 288 283 283 278 269 261 247 243 227 218 236
312 313 314 324 24 319 307 294 287 271 252 240 224 227 243 261 274 286 286 292 287 282 274 269 266 271 274 279 287 289 297 304 308 304 300 300 293 285 284 279 278 275 269 264 253 243 239 225 217
332 284 321 302 318 288 308 278 192 162 216 203 219 236 246 256 271 278 283 282 277 275 276 269 266 271 270 283 287 290 295 300 297 293 288 285 281 284 283 278 275 274 267 262 255 239 233 222 219
297 30 319 317 341 312 10 293 274 156 206 212 231 237 245 255 274 279 278 277 278 277 272 269 269 266 279 285 287 291 291 292 290 287 286 282 280 278 278 277 271 270 265 258 256 243 232 228 216
310 325 309 309 293 326 168 278 273 144 236 227 231 236 241 254 271 288 292 280 277 277 276 269 268 269 281 285 285 288 288 285 286 284 282 280 279 278 277 273 269 265 264 259 254 245 236 228 218
307 301 250 302 254 258 105 348 286 211 215 175 133 219 234 250 265 281 286 280 280 283 281 277 273 280 281 284 289 286 282 283 281 281 280 278 276 274 270 270 267 261 261 259 254 247 240 232 226
290 286 317 311 239 293 153 278 258 294 248 266 273 232 252 265 269 278 289 287 285 286 285 279 284 285 288 286 284 286 283 280 278 276 274 275 273 269 268 264 264 263 259 259 255 250 241 235 228
340 9 18 315 314 308 154 234 268 345 8 318 273 276 288 302 296 284 294 293 292 291 289 288 292 291 292 290 286 284 283 279 277 275 273 268 265 264 263 264 259 258 256 255 253 248 243 238 230
54 277 18 291 161 282 237 259 261 99 323 294 264 280 310 317 313 297 295 296 298 295 294 295 300 297 296 294 291 287 282 280 277 273 271 269 264 261 260 258 259 258 257 254 255 248 246 239 230
344 55 215 141 308 308 266 262 254 310 1 8 292 266 315 322 315 309 305 301 300 299 300 305 305 300 299 299 295 291 285 279 275 271 267 265 264 260 256 252 252 254 255 255 254 249 245 243 232
139 176 165 308 269 270 299 249 190 215 179 248 287 286 306 313 317 314 309 308 303 300 302 305 308 305 300 299 295 291 288 281 275 270 269 266 263 260 258 255 249 252 252 250 249 252 246 243 237
33 357 241 242 197 243 286 272 218 174 253 246 296 309 317 318 316 312 306 304 301 295 306 307 305 303 301 298 295 293 289 282 274 269 266 268 269 263 260 257 255 247 248 247 247 245 243 244 240
Wind_Speed_850mb
4 6 7 1 8 3 10 9 5 15 7 12 14 14 10 7 10 9 2 14 21 25 29 33 43 51 56 48 51 45 48 47 25 15 18 15 15 17 22 25 26 29 32 30 29 28 27 32 31
6 8 5 5 9 5 12 7 13 12 9 5 6 9 5 7 4 1 0 15 20 24 31 37 44 46 53 62 51 51 43 46 43 27 22 24 23 18 24 23 29 32 35 34 32 30 32 33 33
8 8 5 4 8 12 8 8 8 6 6 11 7 4 7 3 0 1 6 13 18 23 29 40 45 47 48 53 64 50 48 45 43 41 30 30 28 26 23 28 37 36 39 36 35 34 34 36 36
5 2 3 13 18 11 11 9 6 3 3 2 8 16 2 4 1 3 9 13 16 21 31 44 50 51 50 49 53 58 46 45 42 41 41 34 40 31 33 37 41 39 40 37 38 39 38 38 39
3 7 6 9 12 10 11 7 2 4 5 12 13 7 12 4 12 5 7 12 15 20 32 40 47 50 50 48 46 51 50 41 39 42 39 39 36 43 35 37 43 38 40 37 40 43 44 42 41
5 7 1 7 10 10 7 2 4 7 11 14 11 18 6 5 6 8 11 9 13 17 26 34 39 39 43 43 40 41 45 42 39 39 40 37 40 41 43 35 46 40 43 38 41 48 47 46 45
4 7 7 9 10 8 5 5 8 12 15 9 10 10 3 6 10 15 14 11 12 17 23 29 34 35 34 36 40 36 39 40 36 38 40 37 37 42 39 43 34 47 51 47 44 50 51 50 47
5 5 8 6 4 6 4 8 6 10 10 9 5 4 7 5 14 21 15 15 17 17 15 19 24 28 32 34 39 39 40 38 36 31 37 35 39 37 44 37 39 37 54 49 47 51 56 54 52
9 4 8 5 2 6 2 7 1 8 18 17 16 17 14 15 22 19 17 17 14 14 16 19 20 25 32 37 39 42 45 49 46 39 30 35 33 33 32 47 38 33 56 59 55 56 67 61 59
15 6 6 6 5 1 4 9 13 10 17 23 21 21 19 18 19 21 22 20 21 17 15 17 19 22 30 37 42 44 46 52 53 56 44 33 31 28 30 39 41 38 45 65 61 60 61 64 63
13 6 12 6 4 2 7 14 8 13 15 10 17 15 16 23 25 28 28 26 24 22 20 23 24 26 32 37 43 46 49 53 53 56 59 46 32 32 28 37 46 43 32 52 64 65 68 74 71
10 9 4 8 2 2 9 15 15 29 18 11 16 18 24 26 31 32 32 30 28 26 23 25 28 31 31 36 35 42 49 54 56 57 55 60 47 30 32 31 47 55 49 26 56 66 74 76 79
13 11 6 8 2 7 17 22 25 40 29 24 20 21 24 25 30 32 33 34 33 32 29 25 30 35 36 41 44 47 50 55 61 59 57 58 58 44 29 34 28 38 57 53 26 54 44 57 81
7 11 9 8 6 15 13 19 15 12 24 19 19 20 23 28 30 33 35 38 38 36 34 30 34 39 42 45 50 52 55 55 63 64 65 61 57 57 43 33 27 36 34 51 55 14 51 40 85
13 5 6 9 5 8 25 17 21 15 16 17 19 22 26 31 33 38 39 40 40 39 37 35 37 41 43 46 47 52 55 62 66 66 63 63 61 57 53 40 30 36 36 34 42 44 36 23 83
6 7 8 9 9 2 14 13 16 24 19 19 19 21 22 25 28 32 37 39 39 41 40 38 39 41 41 41 47 55 58 61 65 70 65 60 61 54 53 45 37 34 40 36 29 52 62 61 51
4 12 14 4 6 11 5 23 2 21 25 28 22 19 18 19 21 24 29 35 38 41 42 42 41 41 39 44 45 52 53 51 61 63 77 66 59 53 50 46 39 37 37 35 31 31 58 63 52
12 12 9 17 10 11 33 48 44 45 43 41 31 22 17 14 17 19 21 26 35 41 40 42 41 42 42 43 47 49 49 53 74 79 62 60 59 55 45 45 41 37 39 38 33 34 53 69 51
9 14 22 22 15 26 22 42 42 38 42 41 37 29 20 14 14 20 24 26 28 31 36 39 41 42 39 41 47 53 61 78 89 69 57 55 59 52 45 43 44 40 39 42 37 35 43 70 91
14 17 15 15 5 21 28 53 47 32 22 34 34 31 24 21 25 24 23 28 30 31 34 37 42 45 45 48 52 58 75 87 92 70 56 49 45 43 43 41 43 42 42 44 38 39 39 62 69
14 9 17 17 33 11 25 21 5 6 12 16 29 29 27 27 30 30 29 28 30 34 37 40 45 49 50 57 60 59 67 80 70 55 48 42 41 45 49 46 45 46 46 46 45 40 43 50 59
10 9 16 27 23 9 16 11 12 5 11 20 31 37 35 29 27 30 33 34 35 37 41 45 46 49 55 58 59 64 63 69 64 55 57 50 45 47 49 50 47 48 48 50 49 44 47 49 61
10 13 21 14 5 10 6 6 14 6 13 19 28 33 29 25 24 25 30 34 37 38 45 46 44 47 54 56 67 62 58 56 60 59 54 51 49 47 46 48 51 50 51 53 54 50 52 57 58
22 17 13 3 3 6 5 7 12 4 5 3 3 10 15 21 26 27 29 33 36 37 42 46 45 51 59 62 59 58 56 59 57 59 58 57 54 50 43 42 47 52 53 56 56 55 58 60 61
11 10 6 4 3 6 11 11 19 20 4 7 4 6 11 21 28 31 32 33 36 38 39 42 49 59 55 55 55 57 60 56 61 60 61 57 55 54 49 43 43 50 53 56 57 61 61 64 70
7 4 5 11 14 26 9 12 5 6 1 7 8 12 16 25 30 33 37 37 37 40 40 46 50 57 56 54 55 56 60 60 59 60 57 56 55 54 50 49 48 45 54 55 59 63 67 67 74
6 1 4 8 1 7 8 13 25 5 1 7 13 7 18 32 39 39 43 43 43 42 44 47 54 55 56 60 57 55 56 57 59 55 57 59 54 54 54 55 56 53 52 57 59 66 71 72 73
4 3 3 2 11 16 12 8 16 9 17 14 14 18 36 52 45 42 44 44 44 44 47 52 57 56 61 61 58 57 57 56 58 57 57 57 57 54 56 58 60 59 55 57 58 67 74 77 77
5 3 1 4 4 8 14 9 6 5 3 5 17 32 60 63 62 54 47 45 45 44 45 57 61 59 63 62 61 60 61 55 55 61 63 57 55 55 58 58 61 65 66 62 62 64 74 81 81
3 1 5 6 5 5 6 21 7 7 5 9 28 58 70 77 74 60 53 50 45 45 55 57 61 59 60 62 65 66 60 58 57 62 64 66 68 62 61 59 61 65 68 67 68 66 67 79 89
Wind_Direction_850mb
61 88 102 353 222 212 86 71 21 30 48 15 2 5 11 11 353 346 216 358 354 352 347 347 343 343 344 343 338 335 340 331 302 280 246 251 256 244 244 229 220 215 209 204 195 191 175 169 173
86 107 71 271 273 256 84 54 46 39 25 355 323 333 263 56 54 40 133 319 349 350 346 339 340 339 338 336 341 336 326 332 314 301 255 253 247 264 246 237 224 217 213 208 199 192 185 178 178
79 96 281 306 0 55 67 63 59 42 24 2 325 345 324 48 149 162 274 327 346 345 344 332 336 335 333 330 328 335 328 320 322 296 293 254 249 246 246 237 220 214 217 216 205 198 186 184 180
105 285 242 58 78 65 72 81 36 345 188 342 334 290 317 202 166 202 301 332 344 340 331 329 334 335 334 331 326 325 329 320 313 308 298 276 245 244 247 245 229 210 214 219 212 203 194 187 183
47 251 113 90 79 110 81 70 328 313 296 318 332 331 293 238 248 269 308 331 333 339 328 330 336 339 339 339 334 325 325 325 311 304 301 283 259 246 244 250 242 212 214 217 214 206 199 193 188
236 259 242 79 95 104 110 76 302 286 315 312 287 304 299 225 244 272 300 318 331 339 334 337 339 342 345 353 346 334 324 322 318 305 298 288 282 262 250 246 248 224 203 214 214 208 203 196 192
7 29 75 88 102 155 119 355 291 323 293 319 307 287 346 254 235 279 282 296 319 327 333 337 338 344 356 1 0 348 335 325 324 312 300 293 286 284 256 250 242 236 202 202 213 211 204 198 196
61 80 117 33 49 96 115 311 297 282 312 303 265 285 307 325 240 284 272 285 300 317 332 334 337 345 350 6 8 3 354 345 330 324 308 308 289 297 273 265 243 236 208 203 205 217 207 201 199
28 119 90 72 317 99 127 310 356 271 272 268 266 286 292 284 277 259 259 276 285 301 309 316 329 347 353 353 360 5 2 360 358 343 328 315 306 292 296 261 253 232 207 206 207 210 214 205 202
21 56 72 40 53 58 266 294 317 281 265 266 263 268 260 264 255 247 254 262 264 272 284 300 308 332 344 347 348 354 356 356 0 359 354 331 321 307 295 259 256 239 221 205 212 209 221 209 201
14 76 132 116 83 7 273 275 234 272 270 266 277 284 259 260 254 252 252 254 256 263 273 281 286 305 323 335 342 344 347 347 350 355 356 354 340 317 290 284 243 257 249 207 206 216 210 213 202
96 89 115 152 175 242 276 295 258 245 244 291 278 270 269 264 253 253 255 254 255 262 269 276 288 296 310 318 331 335 337 339 342 345 348 349 346 330 311 295 272 259 259 263 210 215 219 219 201
84 148 141 176 129 270 292 266 274 266 253 266 269 269 270 263 254 252 253 257 256 258 261 270 286 293 302 312 317 324 328 331 333 336 337 340 339 338 320 283 279 269 257 257 261 225 242 234 198
103 152 164 184 255 291 292 294 300 261 226 246 261 272 276 271 262 255 250 256 257 261 261 261 276 288 295 302 309 314 320 324 327 327 327 329 331 330 324 308 285 279 281 247 246 277 236 234 199
141 187 190 195 287 304 318 258 224 218 207 246 263 275 280 280 267 258 258 257 259 261 263 261 272 285 290 298 304 309 315 317 319 319 319 320 321 323 320 312 292 275 277 270 261 234 225 312 212
259 235 302 130 328 46 349 291 188 196 218 249 276 284 283 286 279 270 265 261 257 260 258 260 267 273 288 294 300 306 309 313 316 316 314 313 311 313 312 308 299 278 276 281 260 240 248 266 221
195 313 310 294 77 323 250 286 286 209 235 256 271 280 285 295 296 286 272 264 261 261 260 258 264 273 281 290 298 303 311 310 315 312 310 307 303 305 302 298 294 286 270 272 271 237 249 252 277
326 320 303 289 40 326 284 269 266 254 245 260 262 258 266 291 310 300 287 273 264 263 259 260 263 270 279 290 297 298 299 303 308 305 301 300 300 301 294 290 287 281 272 260 257 242 224 223 234
338 304 290 287 39 327 301 290 278 270 257 245 244 239 247 267 295 309 307 299 289 271 264 259 262 270 274 284 292 295 298 303 311 301 293 290 291 291 288 283 283 278 269 261 247 243 227 218 236
312 313 314 324 24 319 307 294 287 271 252 240 224 227 243 261 274 286 286 292 287 282 274 269 266 271 274 279 287 289 297 304 308 304 300 300 293 285 284 279 278 275 269 264 253 243 239 225 217
332 284 321 302 318 288 308 278 192 162 216 203 219 236 246 256 271 278 283 282 277 275 276 269 266 271 270 283 287 290 295 300 297 293 288 285 281 284 283 278 275 274 267 262 255 239 233 222 219
297 30 319 317 341 312 10 293 274 156 206 212 231 237 245 255 274 279 278 277 278 277 272 269 269 266 279 285 287 291 291 292 290 287 286 282 280 278 278 277 271 270 265 258 256 243 232 228 216
310 325 309 309 293 326 168 278 273 144 236 227 231 236 241 254 271 288 292 280 277 277 276 269 268 269 281 285 285 288 288 285 286 284 282 280 279 278 277 273 269 265 264 259 254 245 236 228 218
307 301 250 302 254 258 105 348 286 211 215 175 133 219 234 250 265 281 286 280 280 283 281 277 273 280 281 284 289 286 282 283 281 281 280 278 276 274 270 270 267 261 261 259 254 247 240 232 226
290 286 317 311 239 293 153 278 258 294 248 266 273 232 252 265 269 278 289 287 285 286 285 279 284 285 288 286 284 286 283 280 278 276 274 275 273 269 268 264 264 263 259 259 255 250 241 235 228
340 9 18 315 314 308 154 234 268 345 8 318 273 276 288 302 296 284 294 293 292 291 289 288 292 291 292 290 286 284 283 279 277 275 273 268 265 264 263 264 259 258 256 255 253 248 243 238 230
54 277 18 291 161 282 237 259 261 99 323 294 264 280 310 317 313 297 295 296 298 295 294 295 300 297 296 294 291 287 282 280 277 273 271 269 264 261 260 258 259 258 257 254 255 248 246 239 230
344 55 215 141 308 308 266 262 254 310 1 8 292 266 315 322 315 309 305 301 300 299 300 305 305 300 299 299 295 291 285 279 275 271 267 265 264 260 256 252 252 254 255 255 254 249 245 243 232
139 176 165 308 269 270 299 249 190 215 179 248 287 286 306 313 317 314 309 308 303 300 302 305 308 305 300 299 295 291 288 281 275 270 269 266 263 260 258 255 249 252 252 250 249 252 246 243 237
33 357 241 242 197 243 286 272 218 174 253 246 296 309 317 318 316 312 306 304 301 295 306 307 305 303 301 298 295 293 289 282 274 269 266 268 269 263 260 257 255 247 248 247 247 245 243 244 240